{"data":{"norad_id":53848,"intl_designator":"2022-114AG","name":"STARLINK-4780","alt_names":[],"object_type":"PAYLOAD","status":"ACTIVE","operator":null,"country":"US","launch_date":"2022-09-19","launch_site_code":"AFETR","launch_vehicle":null,"mission":null,"orbit_class":"UNKNOWN","rcs_meters":null,"size_class":null,"mass_kg":null,"dimensions":null,"purposes":["comms"],"wikipedia_slug":null,"has_3d_model":false,"image_url":null,"decayed_at":null,"tle_current":{"epoch":"2026-05-25T04:27:15.338880Z","epoch_age_seconds":65956,"freshness":"FRESH","line1":"1 53848U 22114AG  26145.18559420  .00000621  00000+0  57105-4 0  9990","line2":"2 53848  53.2148 310.4507 0001283  88.3626 271.7513 15.08840902204526","mean_motion":15.08840902,"eccentricity":0.0001283,"inclination_deg":53.2148,"raan_deg":310.4507,"arg_perigee_deg":88.3626,"mean_anomaly_deg":271.7513,"bstar":5.7105e-5,"rev_number":20452,"period_min":95.437497624253,"perigee_km":538.85306821215,"apogee_km":540.6281956125,"semimajor_km":6917.8776319123,"source":"CELESTRAK","updated_at":"2026-05-25T13:38:17.575860Z"}}}